Regional Weather Roundup
Issued by NWS

Home | Current Version | Previous Version | Text Only | Print | Product List | Glossary Off
Versions: 1 2 3 4 5 6 7 8 9 10 11 12 13 14 15 16 17 18 19 20 21 22 23 24 25 26 27 28 29 30 31 32 33 34 35 36 37 38 39 40 41 42 43 44 45 46 47 48 49 50

000
ASUS45 KBOU 020910
RWRCO

WEATHER ROUNDUP FOR COLORADO
NATIONAL WEATHER SERVICE PUEBLO CO
300 AM MDT SUN AUG 02 2015

NOTE: "FAIR" INDICATES FEW OR NO CLOUDS BELOW 12000 FEET WITH NO
SIGNIFICANT WEATHER AND/OR OBSTRUCTIONS TO VISIBILITY.

COZ001>005-013-030-031-021000-
...NORTHWEST COLORADO...

CITY           SKY/WX    TMP DP  RH WIND       PRES   REMARKS
CRAIG          CLEAR     50  42  74 E3        30.18R
HAYDEN         CLEAR     59  39  47 E9        30.20S
MEEKER         PTCLDY    55  44  66 E6        30.20S
MOUNT WERNER   NOT AVBL
STEAMBOAT SPGS FAIR      52  42  68 CALM      30.23S
WALDEN         MOCLDY    48  37  66 SE6       30.30S
$$

COZ006>008-011-021000-
...WEST CENTRAL VALLEYS...

CITY           SKY/WX    TMP DP  RH WIND       PRES   REMARKS
GRAND JUNCTION PTCLDY    71  51  49 E10       30.09S
MONTROSE       CLOUDY    67  53  61 SE15      30.19S
EAGLE          PTCLDY    59  45  58 CALM      30.23S
RIFLE          MOCLDY    68  48  48 CALM      30.15R
DELTA          NOT AVBL
NUCLA          DRIZZLE   61  55  82 NE5       30.25S
$$

COZ017>023-064>068-021000-
...SOUTHWEST COLORADO...

CITY           SKY/WX    TMP DP  RH WIND       PRES   REMARKS
DURANGO        MOCLDY    59  54  83 E3        30.25S
CORTEZ         MOCLDY    62  58  86 NE6       30.18F
PAGOSA SPRINGS FAIR      56  55  97 CALM      30.33S
TELLURIDE      LGT RAIN  52  52  98 CALM      30.43S
WOLF CREEK PAS NOT AVBL
$$

COZ009-010-012-014-032>034-037-058>063-021000-
...CENTRAL COLORADO...

CITY           SKY/WX    TMP DP  RH WIND       PRES   REMARKS
ASPEN          MOCLDY    57  47  69 CALM      30.29F
BUENA VISTA    FAIR      52  47  83 SW3       30.33F
COPPER MTN     MOCLDY    54  36  50 W10       30.62S
BERTHOUD PASS  FAIR      46  36  66 SW6       30.66F
COTTONWOOD PAS MOCLDY    57  41  54 W3        30.46F
GUNNISON       MOCLDY    55  52  88 CALM      30.36F
KREMMLING      PTCLDY    50  36  57 CALM      30.29S
LEADVILLE      CLOUDY    51  42  71 CALM      30.46S
MONARCH PASS   MOCLDY    46  37  71 SW8       30.71F
SALIDA         FAIR      60  48  64 W3        30.37F
NIWOT RIDGE    NOT AVBL
SUNLIGHT       CLOUDY    55  41  58 CALM      30.55S
WILKERSON PASS PTCLDY    48  39  71 SW7       30.58F
$$

COZ069>075-021000-
...SAN LUIS VALLEY/SANGRE DE CRISTO MOUNTAINS...

CITY           SKY/WX    TMP DP  RH WIND       PRES   REMARKS
ALAMOSA        CLOUDY    57  50  77 CALM      30.30F
LA VETA PASS   MOCLDY    46  37  71 MISG      30.47F
SAGUACHE       MOCLDY    57  46  67 N6        30.34S
$$

COZ035-036-038>040-021000-
...NORTHERN COLORADO FRONT RANGE...

CITY           SKY/WX    TMP DP  RH WIND       PRES   REMARKS
DENVER INTL AP MOCLDY    70  47  43 SW8       30.08S
DMNS CITY PARK NOT AVBL
AURORA         MOCLDY    68  48  50 S9        30.11S
FRONT RANGE AP FAIR      66  45  45 S8        30.10S
ERIE MUNI ARPT FAIR      65  54  67 W3        30.07S
BOULDER MUN AP FAIR      68  52  56 CALM      30.08S
CENTENNIAL     MOCLDY    70  46  42 SW10      30.11F
BROOMFIELD     MOCLDY    68  54  60 CALM      30.11S
LOVELAND       MOCLDY    63  54  72 NW8       30.08S
LONGMONT       FAIR      69  55  60 N8        30.08F
$$

COZ041-046-047-076>085-087-088-021000-
...PIKES PEAK/PALMER DIVIDE AND SOUTHERN FOOTHILLS...

CITY           SKY/WX    TMP DP  RH WIND       PRES   REMARKS
COLO. SPRINGS  MOCLDY    64  52  64 SE6       30.18F
A. F. ACADEMY  PTCLDY    60  48  64 NW7       30.20S
ELLICOTT       FAIR     N/A N/A N/A NW3       30.16F
FALCON         MOCLDY    60  50  70 SW5       30.24S
FORT CARSON    MOCLDY    65  51  60 SW1       30.13F
LIMON          PTCLDY    55  52  89 N3        30.11F
MONUMENT HILL  NOT AVBL
TRINIDAD       MOCLDY    64  55  72 W16       30.14F
$$

COZ042>045-048>051-090-091-021000-
...NORTHEAST COLORADO...

CITY           SKY/WX    TMP DP  RH WIND       PRES   REMARKS
GREELEY ARPT   MOCLDY    64  54  68 N5        30.05S
AKRON          MOCLDY    65  58  78 NE7       30.05F
BURLINGTON     PTCLDY    65  62  90 S7        30.02F
WRAY           FAIR      67  61  80 W3        29.99F
STERLING       FAIR      64  57  77 NE3       30.01F
HOLYOKE        NOT AVBL
FORT MORGAN    FAIR      65  55  69 E5        30.04S
$$

COZ086-089-092>099-021000-
...SOUTHEAST COLORADO...

CITY           SKY/WX    TMP DP  RH WIND       PRES   REMARKS
PUEBLO         MOCLDY    71  57  61 NW9       30.05F
LA JUNTA       CLOUDY    71  57  61 N5        30.02S
LAMAR          PTCLDY    69  58  67 W6        29.96F
SPRINGFIELD      N/A     65  59  81 W7        30.04F
$$



USA.gov is the U.S. government's official web portal to all federal, state and local government web resources and services.